Location: ?
(35.2180°N, 139.6392°E)
Time: 21:52:40
(UTC+00:00)

CZ-2C R/B - Pass Details

Date: 05 August 2024
Orbit: 665 x 777 km, 98.4° (Epoch: 17 September)

Event Time Altitude Azimuth Distance (km) Brightness Sun altitude
Rises 17:53:24 0° 18° (NNE) 3,255 6.7 -21.9°
Reaches altitude 10° 17:55:47 10° 23° (NNE) 2,330 5.9 -21.5°
Maximum altitude 18:00:49 53° 100° (E) 950 3.1 -20.8°
Enters shadow 18:04:27 18° 172° (S) 1,806 4.1 -20.2°
